Location: *
(31.2983°S, 151.4094°E)
Time: 06:07:06
(UTC+00:00)

Cosmos 2297 - Visible Passes

Search period start: 20 November 2019 00:00
Search period end: 30 November 2019 00:00
Orbit: 834 x 860 km, 71.0° (Epoch: 18 November)

Date Brightness Start Highest point End Pass type
(mag) Time Alt. Az. Time Alt. Az. Time Alt. Az.
20 Nov 5.2 14:39:54 33° SSE 14:39:54 33° SSE 14:42:57 10° SSE visible
21 Nov 5.3 14:26:41 31° SSE 14:26:41 31° SSE 14:29:33 10° SSE visible
22 Nov 5.4 14:13:27 30° SSE 14:13:27 30° SSE 14:16:11 10° SSE visible
22 Nov 6.1 15:55:21 10° SW 15:55:22 10° SW 15:55:45 10° SW visible
23 Nov 5.4 14:00:10 29° SSE 14:00:10 29° SSE 14:02:47 10° SSE visible
23 Nov 6.1 15:42:05 10° SW 15:42:05 10° SW 15:42:53 10° SW visible
24 Nov 5.4 13:46:51 28° SSE 13:46:51 28° SSE 13:49:24 10° SSE visible
24 Nov 6.1 15:28:46 11° SW 15:28:46 11° SW 15:29:48 10° SW visible
25 Nov 5.4 13:33:30 28° SSE 13:33:30 28° SSE 13:36:01 10° SSE visible
25 Nov 6.1 15:15:24 11° SW 15:15:24 11° SW 15:16:39 10° SW visible
26 Nov 5.4 13:20:07 27° SSE 13:20:07 27° SSE 13:22:38 10° SSE visible
26 Nov 6.1 15:02:01 11° SW 15:02:01 11° SW 15:03:28 10° SW visible
27 Nov 5.4 13:06:41 28° SSE 13:06:41 28° SSE 13:09:15 10° SSE visible
27 Nov 6.2 14:48:34 12° SW 14:48:34 12° SW 14:50:15 10° SW visible
28 Nov 5.3 12:53:12 29° SSE 12:53:12 29° SSE 12:55:52 10° SSE visible
28 Nov 6.2 14:35:05 12° SW 14:35:05 12° SW 14:37:01 10° SW visible
29 Nov 5.2 12:39:40 30° SSE 12:39:40 30° SSE 12:42:28 10° SSE visible
29 Nov 6.1 14:21:33 12° SW 14:21:33 12° SW 14:23:46 10° SSW visible
